Yatton Keynell, United Kingdom

6:47 AM BST on April 21, 2019 (GMT +0100)
Yatton Keynell

Weather History for 03740 - May, 2011

Change the Weather History Date:

Sunday, May 29, 2011

  Actual Average Record
Temperature  
Mean Temperature 58 °F -  
Max Temperature 63 °F 65 °F - ()
Min Temperature 52 °F 49 °F - ()
Degree Days  
Heating Degree Days 8    
Growing Degree Days 8 (Base 50)    
Moisture  
Dew Point 51 °F    
Average Humidity 76    
Maximum Humidity 94    
Minimum Humidity 57    
Precipitation  
Precipitation 0.00 in 0.07 in - ()
Sea Level Pressure  
Sea Level Pressure 29.88 in    
Wind  
Wind Speed 11 mph ()    
Max Wind Speed 22 mph    
Max Gust Speed -    
Visibility 7.2 miles    
Events Rain    
T = Trace of Precipitation, MM = Missing Value Source: Averaged Metar Reports

Daily Weather History Graph

Daily Weather History Graph

Search for Another Location

Airport or City:

Astronomy

May. 29, 2011 Rise Set
Actual Time 4:59 AM BST 9:11 PM BST
Civil Twilight 4:14 AM BST 9:56 PM BST
Nautical Twilight 3:10 AM BST 11:02 PM BST
Astronomical Twilight 1:37 AM BST 12:32 AM BST
Moon 2:55 AM BST (5/29) 5:57 PM BST (5/29)
Length of Visible Light 17h 41m
Length of Day
16h 12m
Waning Crescent, 11% of the Moon is Illuminated
May 29
Waning Crescent
Jun 1
New
Jun 9
First Quarter
Jun 15
Full
Jun 23
Last Quarter

Hourly Weather History & Observations

Time (BST) Temp. Dew Point Humidity Pressure Visibility Wind Dir Wind Speed Gust Speed Precip Events Conditions
12:50 AM 53 °F - % 29.89 in 19 mi SW 9.2 mph - -   Overcast
12:50 AM - - N/A% 29.89 in 6.2 mi SW 9.2 mph - N/A   Overcast
1:50 AM - - N/A% 29.86 in 6.2 mi SW 13.8 mph - N/A   Overcast
2:50 AM - - N/A% 29.86 in 6.2 mi SW 12.7 mph - N/A   Light Drizzle
3:50 AM 53 °F - % 29.86 in 22 mi SW 12.7 mph - - Rain Light Drizzle
3:50 AM - - N/A% 29.86 in 6.2 mi SW 12.7 mph - N/A   Overcast
4:50 AM - - N/A% 29.86 in 6.2 mi SW 13.8 mph - N/A   Overcast
5:50 AM - - N/A% 29.86 in 6.2 mi SSW 9.2 mph - N/A   Mostly Cloudy
6:50 AM 54 °F - % 29.87 in 22 mi SSW 11.5 mph - -   Partly Cloudy
6:50 AM - - N/A% 29.86 in 6.2 mi SSW 11.5 mph - N/A   Mostly Cloudy
7:50 AM 55.4 °F 50.0 °F 82% 29.86 in 6.2 mi SW 12.7 mph - N/A   Mostly Cloudy
8:50 AM 55.4 °F 48.2 °F 77% 29.86 in 6.2 mi SW 15.0 mph - N/A   Mostly Cloudy
9:50 AM 56 °F 48 °F 67% 29.87 in 25 mi SW 12.7 mph - -   Overcast
9:50 AM 55.4 °F 48.2 °F 77% 29.86 in 6.2 mi SW 12.7 mph - N/A   Overcast
10:50 AM 55.4 °F 50.0 °F 82% 29.86 in 6.2 mi SW 12.7 mph - N/A   Overcast
11:50 AM 57.2 °F 50.0 °F 77% 29.86 in 6.2 mi SW 17.3 mph - N/A   Overcast
12:50 PM 59 °F 51 °F 69% 29.88 in 25 mi SW 19.6 mph - -   Partly Cloudy
12:50 PM 59.0 °F 51.8 °F 77% 29.86 in 6.2 mi SW 19.6 mph - N/A   Overcast
1:50 PM 57.2 °F 53.6 °F 88% 29.89 in 6.2 mi SW 18.4 mph - N/A Rain Light Rain
2:50 PM 62.6 °F 51.8 °F 68% 29.86 in 6.2 mi WSW 21.9 mph - N/A   Scattered Clouds
3:50 PM 62 °F 51 °F 59% 29.89 in 25 mi WSW 20.7 mph - -   Partly Cloudy
3:50 PM 62.6 °F 51.8 °F 68% 29.89 in 6.2 mi WSW 20.7 mph - N/A   Mostly Cloudy
4:50 PM 60.8 °F 50.0 °F 68% 29.89 in 6.2 mi WSW 16.1 mph - N/A   Scattered Clouds
5:50 PM 59.0 °F 48.2 °F 67% 29.89 in 6.2 mi West 18.4 mph - N/A   Mostly Cloudy
6:50 PM 59 °F 48 °F 57% 29.90 in 25 mi WSW 13.8 mph - -   Partly Cloudy
6:50 PM 59.0 °F 48.2 °F 67% 29.89 in 6.2 mi WSW 13.8 mph - N/A   Mostly Cloudy
7:50 PM 57.2 °F 51.8 °F 82% 29.89 in 6.2 mi West 12.7 mph - N/A   Mostly Cloudy
8:50 PM 55.4 °F 51.8 °F 88% 29.92 in 6.2 mi WSW 5.8 mph - N/A   Overcast
9:50 PM 56 °F 52 °F 82% 29.93 in 19 mi WSW 5.8 mph - -   Overcast
9:50 PM 55.4 °F 51.8 °F 88% 29.92 in 6.2 mi WSW 5.8 mph - N/A   Overcast
10:50 PM 55.4 °F 51.8 °F 88% 29.92 in 6.2 mi SSW 3.5 mph - N/A   Light Drizzle
11:50 PM 55.4 °F 53.6 °F 94% 29.89 in 6.2 mi SSE 3.5 mph - N/A   Overcast